Location: ????????
(55.7667°N, 37.4833°E)
Time: 13:33:00
(UTC+00:00)

COSMOS 2428 - Pass Details

Date: 19 May 2025
Orbit: 845 x 853 km, 70.9° (Epoch: 20 June)

Event Time Altitude Azimuth Distance (km) Brightness Sun altitude
Rises 21:11:57 0° 324° (NW) 3,434 6.9 -14.2°
Reaches altitude 10° 21:14:31 10° 330° (NNW) 2,496 6.2 -14.2°
Maximum altitude 21:20:03 47° 44° (NE) 1,125 3.7 -14.3°
Drops below altitude 10° 21:25:33 10° 118° (ESE) 2,486 4.9 -14.3°
Enters shadow 21:27:58 - 124° (SE) 3,369 5.5 -14.3°
